Reading, PA

4:02 PM EST on November 17, 2019 (GMT -0500)
Reading Regional-Spaatz

Weather History for KRDG - August, 2019

Change the Weather History Date:

Tuesday, August 27, 2019

  Actual Average Record
Temperature  
Mean Temperature 67 °F 72 °F  
Max Temperature 77 °F 82 °F 101 °F (1948)
Min Temperature 57 °F 61 °F 45 °F (1910)
Degree Days  
Heating Degree Days 0 0  
Month to date heating degree days 0 0  
Since 1 June heating degree days 16 25  
Since 1 July heating degree days 0 1  
Cooling Degree Days 2 7  
Month to date cooling degree days 295 225  
Year to date cooling degree days 1033 777  
Since 1 June cooling degree days 928 717  
Growing Degree Days 17 (Base 50)    
Moisture  
Dew Point 61 °F    
Average Humidity 81    
Maximum Humidity 100    
Minimum Humidity 64    
Precipitation  
Precipitation T in 0.12 in 2.41 in (2006)
Month to date precipitation 1.79 3.20  
Year to date precipitation 40.08 28.52  
Sea Level Pressure  
Sea Level Pressure 30.05 in    
Wind  
Wind Speed 3 mph ()    
Max Wind Speed 12 mph    
Max Gust Speed 16 mph    
Visibility 10.0 miles    
Events Rain    
T = Trace of Precipitation, MM = Missing Value Source: Averaged Metar Reports

Daily Weather History Graph

Daily Weather History Graph

Search for Another Location

Airport or City:

Astronomy

Aug. 27, 2019 Rise Set
Actual Time 6:26 AM EDT 7:43 PM EDT
Civil Twilight 5:57 AM EDT 8:12 PM EDT
Nautical Twilight 5:23 AM EDT 8:45 PM EDT
Astronomical Twilight 4:48 AM EDT 9:21 PM EDT
Moon 2:47 AM EDT (8/27) 6:03 PM EDT (8/27)
Length of Visible Light 14h 14m
Length of Day
13h 17m
Waning Crescent, 11% of the Moon is Illuminated
Aug 27
Waning Crescent
Aug 30
New
Sep 5
First Quarter
Sep 14
Full
Sep 21
Last Quarter

Hourly Weather History & Observations

Time (EDT) Temp. Dew Point Humidity Pressure Visibility Wind Dir Wind Speed Gust Speed Precip Events Conditions
12:54 AM 62.1 °F 57.0 °F 84% 30.15 in 10.0 mi Calm Calm - N/A   Clear
1:54 AM 60.1 °F 57.0 °F 90% 30.14 in 10.0 mi Calm Calm - N/A   Clear
2:54 AM 61.0 °F 57.0 °F 87% 30.12 in 10.0 mi Calm Calm - N/A   Clear
3:54 AM 59.0 °F 57.9 °F 96% 30.10 in 10.0 mi NE 3.5 mph - N/A   Clear
4:54 AM 57.9 °F 57.0 °F 97% 30.08 in 10.0 mi NNW 4.6 mph - N/A   Clear
5:54 AM 59.0 °F 57.9 °F 96% 30.08 in 10.0 mi Calm Calm - N/A   Clear
6:54 AM 59.0 °F 57.9 °F 96% 30.09 in 10.0 mi NNW 3.5 mph - N/A   Partly Cloudy
7:07 AM 59.0 °F 57.9 °F 96% 30.08 in 10.0 mi NNW 3.5 mph - N/A   Mostly Cloudy
7:54 AM 60.1 °F 59.0 °F 96% 30.10 in 10.0 mi Calm Calm - N/A   Mostly Cloudy
8:14 AM 61.0 °F 59.0 °F 93% 30.09 in 10.0 mi Calm Calm - N/A   Scattered Clouds
8:54 AM 63.0 °F 60.1 °F 90% 30.10 in 10.0 mi Calm Calm - N/A   Clear
9:54 AM 66.0 °F 60.1 °F 81% 30.10 in 10.0 mi SSE 3.5 mph - N/A   Scattered Clouds
10:54 AM 66.9 °F 61.0 °F 81% 30.09 in 10.0 mi SSE 6.9 mph - 0.00 in   Scattered Clouds
11:54 AM 70.0 °F 61.0 °F 73% 30.07 in 10.0 mi SE 6.9 mph - N/A   Mostly Cloudy
12:54 PM 73.0 °F 63.0 °F 71% 30.06 in 10.0 mi SSE 8.1 mph - N/A   Mostly Cloudy
1:01 PM 73.0 °F 63.0 °F 71% 30.04 in 10.0 mi SSE 6.9 mph - N/A   Mostly Cloudy
1:54 PM 73.0 °F 62.1 °F 68% 30.04 in 10.0 mi SSE 9.2 mph - N/A   Mostly Cloudy
2:54 PM 73.9 °F 63.0 °F 68% 30.02 in 10.0 mi SSW 5.8 mph - 0.00 in   Mostly Cloudy
3:01 PM 73.9 °F 63.0 °F 68% 30.01 in 10.0 mi ESE 5.8 mph - N/A   Mostly Cloudy
3:54 PM 73.9 °F 64.0 °F 71% 30.01 in 10.0 mi Calm Calm - 0.00 in Rain Light Rain
4:54 PM 75.9 °F 63.0 °F 64% 29.99 in 10.0 mi South 8.1 mph - 0.00 in   Mostly Cloudy
5:54 PM 75.9 °F 63.0 °F 64% 29.98 in 10.0 mi ESE 5.8 mph - N/A   Mostly Cloudy
6:54 PM 73.9 °F 63.0 °F 68% 29.98 in 10.0 mi SSE 6.9 mph - N/A   Partly Cloudy
7:54 PM 72.0 °F 62.1 °F 71% 29.99 in 10.0 mi Calm Calm - N/A   Clear
8:54 PM 70.0 °F 63.0 °F 78% 30.00 in 10.0 mi Calm Calm - N/A   Clear
9:54 PM 70.0 °F 63.0 °F 78% 30.01 in 10.0 mi South 4.6 mph - N/A   Clear
10:54 PM 68.0 °F 64.0 °F 87% 30.00 in 10.0 mi SSE 6.9 mph - N/A   Clear
11:54 PM 68.0 °F 64.0 °F 87% 29.99 in 10.0 mi SSE 5.8 mph - N/A   Clear